| time (UTC) | temp F | wind direction | speed MPH | gust MPH | rain 1hr in | rain 24hr in | rain mn in | humidity % | barometer mb |
| 20260509123027 | 67 | 268 | 0.0 | 3.0 | 0.00 | 0.00 | 0.00 | 100 | 1008.4 |
| 20260509121538 | 67 | 268 | 0.0 | 1.0 | 0.00 | 0.00 | 0.00 | 100 | 1008.4 |
| 20260509120033 | 66 | 268 | 0.0 | 1.0 | 0.00 | 0.00 | 0.00 | 100 | 1008.3 |
| 20260509114528 | 66 | 267 | 0.0 | 2.0 | 0.00 | 0.01 | 0.00 | 100 | 1008.1 |
| 20260509113024 | 67 | 267 | 0.0 | 6.0 | 0.00 | 0.01 | 0.00 | 100 | 1007.9 |
| 20260509111524 | 67 | 258 | 0.0 | 4.0 | 0.00 | 0.01 | 0.00 | 100 | 1007.5 |
| 20260509110022 | 67 | 254 | 0.0 | 3.0 | 0.00 | 0.01 | 0.00 | 100 | 1007.3 |
| 20260509104522 | 67 | 252 | 0.0 | 9.0 | 0.00 | 0.04 | 0.00 | 100 | 1007.5 |
| 20260509103021 | 67 | 250 | 0.0 | 1.0 | 0.00 | 0.04 | 0.00 | 100 | 1006.9 |
| 20260509101523 | 68 | 250 | 0.0 | 0.0 | 0.00 | 0.04 | 0.00 | 99 | 1006.6 |
| 20260509100023 | 68 | 250 | 0.0 | 0.0 | 0.00 | 0.04 | 0.00 | 99 | 1006.8 |
| 20260509094519 | 69 | 250 | 0.0 | 0.0 | 0.00 | 0.06 | 0.00 | 98 | 1006.3 |
| 20260509093019 | 69 | 250 | 0.0 | 0.0 | 0.00 | 0.06 | 0.00 | 95 | 1006.2 |
| 20260509091520 | 70 | 250 | 0.0 | 0.0 | 0.00 | 0.06 | 0.00 | 93 | 1005.7 |
| 20260509090019 | 70 | 250 | 0.0 | 0.0 | 0.00 | 0.06 | 0.00 | 92 | 1006.0 |
| 20260509084517 | 69 | 250 | 0.0 | 2.0 | 0.00 | 0.08 | 0.00 | 94 | 1005.7 |
| 20260509083012 | 69 | 215 | 0.0 | 1.0 | 0.00 | 0.08 | 0.00 | 97 | 1004.8 |
| 20260509081512 | 69 | 215 | 0.0 | 2.0 | 0.00 | 0.08 | 0.00 | 99 | 1003.8 |
| 20260509080008 | 69 | 215 | 0.0 | 6.0 | 0.00 | 0.08 | 0.00 | 100 | 1004.4 |
| 20260509074505 | 69 | 222 | 0.0 | 9.0 | 0.00 | 0.40 | 0.00 | 100 | 1005.8 |
| 20260509073001 | 69 | 226 | 0.0 | 12.0 | 0.00 | 0.40 | 0.00 | 100 | 1006.9 |
| 20260509071559 | 68 | 223 | 0.0 | 4.0 | 0.00 | 0.40 | 0.00 | 100 | 1007.2 |
| 20260509070057 | 68 | 207 | 0.0 | 4.0 | 0.00 | 0.40 | 0.00 | 100 | 1007.9 |
| 20260509064555 | 67 | 201 | 0.0 | 3.0 | 0.00 | 0.40 | 0.00 | 100 | 1008.2 |
| 20260509063102 | 67 | 200 | 0.0 | 0.0 | 0.00 | 0.40 | 0.00 | 100 | 1008.8 |
| 20260509061551 | 67 | 200 | 0.0 | 1.0 | 0.00 | 0.40 | 0.00 | 100 | 1008.8 |
| 20260509060058 | 68 | 200 | 0.0 | 0.0 | 0.00 | 0.40 | 0.00 | 100 | 1008.9 |
| 20260509054549 | 68 | 200 | 0.0 | 0.0 | 0.00 | 0.40 | 0.00 | 100 | 1008.5 |
| 20260509053112 | 68 | 200 | 0.0 | 0.0 | 0.00 | 0.40 | 0.00 | 100 | 1008.4 |
| 20260509051544 | 69 | 200 | 0.0 | 0.0 | 0.00 | 0.40 | 0.00 | 99 | 1009.1 |
| 20260509050041 | 69 | 200 | 0.0 | 1.0 | 0.00 | 0.40 | 0.00 | 99 | 1009.9 |
| 20260509044536 | 69 | 200 | 0.0 | 0.0 | 0.00 | 0.40 | 0.40 | 99 | 1009.5 |
| 20260509043032 | 70 | 200 | 0.0 | 0.0 | 0.00 | 0.40 | 0.40 | 98 | 1008.5 |
| 20260509041536 | 70 | 200 | 0.0 | 1.0 | 0.00 | 0.40 | 0.40 | 98 | 1008.2 |
| 20260509040024 | 70 | 200 | 0.0 | 2.0 | 0.00 | 0.40 | 0.40 | 98 | 1007.6 |
| 20260509034519 | 70 | 200 | 0.0 | 1.0 | 0.00 | 0.40 | 0.40 | 97 | 1007.7 |
| 20260509033015 | 70 | 200 | 0.0 | 0.0 | 0.00 | 0.40 | 0.40 | 98 | 1007.7 |
| 20260509031510 | 70 | 200 | 0.0 | 1.0 | 0.00 | 0.40 | 0.40 | 98 | 1008.5 |
| 20260509030006 | 70 | 200 | 0.0 | 1.0 | 0.00 | 0.40 | 0.40 | 98 | 1008.3 |
| 20260509024502 | 70 | 200 | 0.0 | 1.0 | 0.00 | 0.40 | 0.40 | 97 | 1007.1 |
| 20260509023058 | 70 | 200 | 0.0 | 0.0 | 0.00 | 0.40 | 0.40 | 97 | 1007.0 |
| 20260509021554 | 70 | 200 | 0.0 | 1.0 | 0.00 | 0.40 | 0.40 | 96 | 1006.5 |
| 20260509020054 | 70 | 200 | 0.0 | 0.0 | 0.00 | 0.40 | 0.40 | 95 | 1006.3 |
| 20260509014549 | 71 | 200 | 0.0 | 0.0 | 0.00 | 0.40 | 0.40 | 94 | 1006.1 |
| 20260509013049 | 71 | 200 | 0.0 | 0.0 | 0.00 | 0.40 | 0.40 | 92 | 1006.3 |
| 20260509011537 | 72 | 200 | 0.0 | 0.0 | 0.00 | 0.40 | 0.40 | 91 | 1006.7 |
| 20260509010046 | 72 | 200 | 0.0 | 0.0 | 0.00 | 0.40 | 0.40 | 90 | 1006.7 |
| 20260509004529 | 72 | 200 | 0.0 | 1.0 | 0.00 | 0.40 | 0.40 | 90 | 1006.5 |
| 20260509003023 | 73 | 200 | 0.0 | 3.0 | 0.00 | 0.40 | 0.40 | 89 | 1006.2 |
| 20260509001518 | 73 | 200 | 0.0 | 3.0 | 0.00 | 0.40 | 0.40 | 88 | 1006.0 |
| 20260509000013 | 73 | 200 | 0.0 | 6.0 | 0.00 | 0.40 | 0.40 | 87 | 1006.1 |
| 20260508234520 | 74 | 200 | 0.0 | 4.0 | 0.00 | 0.40 | 0.40 | 86 | 1006.3 |
| 20260508233008 | 74 | 200 | 0.0 | 7.0 | 0.00 | 0.40 | 0.40 | 85 | 1006.3 |
| 20260508231604 | 74 | 200 | 0.0 | 3.0 | 0.00 | 0.40 | 0.40 | 84 | 1006.4 |
| 20260508230104 | 75 | 200 | 0.0 | 3.0 | 0.00 | 0.40 | 0.40 | 83 | 1006.3 |
| 20260508224551 | 75 | 200 | 0.0 | 4.0 | 0.00 | 0.40 | 0.40 | 81 | 1006.4 |
| 20260508223047 | 75 | 200 | 0.0 | 5.0 | 0.00 | 0.40 | 0.40 | 80 | 1006.5 |
| 20260508221548 | 75 | 200 | 0.0 | 4.0 | 0.00 | 0.40 | 0.40 | 80 | 1006.6 |
| 20260508220038 | 75 | 200 | 0.0 | 7.0 | 0.00 | 0.40 | 0.40 | 79 | 1006.5 |
| 20260508214534 | 74 | 203 | 0.0 | 5.0 | 0.00 | 0.40 | 0.40 | 80 | 1006.6 |
| 20260508213030 | 75 | 208 | 0.0 | 5.0 | 0.00 | 0.40 | 0.40 | 80 | 1006.6 |
| 20260508211525 | 75 | 215 | 0.0 | 5.0 | 0.00 | 0.40 | 0.40 | 79 | 1006.8 |
| 20260508210021 | 75 | 202 | 0.0 | 1.0 | 0.00 | 0.40 | 0.40 | 81 | 1007.0 |
| 20260508204517 | 74 | 202 | 0.0 | 5.0 | 0.00 | 0.40 | 0.40 | 81 | 1007.1 |
| 20260508203013 | 73 | 202 | 0.0 | 5.0 | 0.00 | 0.40 | 0.40 | 81 | 1007.9 |
| 20260508201509 | 73 | 213 | 0.0 | 5.0 | 0.00 | 0.40 | 0.40 | 82 | 1008.6 |
| 20260508200003 | 74 | 215 | 0.0 | 5.0 | 0.00 | 0.40 | 0.40 | 80 | 1008.8 |
| 20260508194559 | 75 | 214 | 0.0 | 4.0 | 0.00 | 0.40 | 0.40 | 78 | 1008.8 |
| 20260508193107 | 74 | 216 | 0.0 | 5.0 | 0.00 | 0.40 | 0.40 | 79 | 1008.9 |
| 20260508191556 | 76 | 216 | 0.0 | 2.0 | 0.00 | 0.40 | 0.40 | 78 | 1009.0 |
| 20260508190050 | 76 | 219 | 0.0 | 4.0 | 0.00 | 0.40 | 0.40 | 76 | 1009.0 |
| 20260508184542 | 76 | 221 | 0.0 | 4.0 | 0.00 | 0.40 | 0.40 | 77 | 1009.0 |
| 20260508183039 | 76 | 223 | 0.0 | 2.0 | 0.00 | 0.40 | 0.40 | 77 | 1009.2 |
| 20260508181535 | 75 | 223 | 0.0 | 2.0 | 0.00 | 0.40 | 0.40 | 79 | 1009.5 |
| 20260508180031 | 75 | 223 | 0.0 | 5.0 | 0.00 | 0.40 | 0.40 | 79 | 1009.9 |
| 20260508174537 | 74 | 191 | 0.0 | 4.0 | 0.00 | 0.40 | 0.40 | 81 | 1010.2 |
| 20260508173028 | 73 | 193 | 0.0 | 1.0 | 0.00 | 0.40 | 0.40 | 82 | 1010.3 |
| 20260508171523 | 72 | 196 | 0.0 | 2.0 | 0.00 | 0.40 | 0.40 | 82 | 1010.4 |
| 20260508170023 | 71 | 194 | 0.0 | 2.0 | 0.00 | 0.40 | 0.40 | 82 | 1010.8 |
| 20260508164525 | 70 | 198 | 0.0 | 1.0 | 0.00 | 0.40 | 0.40 | 84 | 1011.0 |
| 20260508163013 | 68 | 201 | 0.0 | 1.0 | 0.00 | 0.40 | 0.40 | 89 | 1011.4 |
| 20260508161513 | 67 | 202 | 0.0 | 1.0 | 0.00 | 0.40 | 0.40 | 88 | 1011.7 |
| 20260508160008 | 66 | 202 | 0.0 | 0.0 | 0.00 | 0.40 | 0.40 | 93 | 1011.8 |
| 20260508154504 | 65 | 202 | 0.0 | 0.0 | 0.00 | 0.40 | 0.40 | 95 | 1012.0 |
| 20260508153002 | 64 | 202 | 0.0 | 1.0 | 0.00 | 0.40 | 0.40 | 98 | 1012.2 |
| 20260508151558 | 62 | 202 | 0.0 | 1.0 | 0.00 | 0.40 | 0.40 | 100 | 1012.2 |
| 20260508150056 | 62 | 202 | 0.0 | 0.0 | 0.00 | 0.40 | 0.40 | 100 | 1012.5 |
| 20260508144555 | 62 | 202 | 0.0 | 0.0 | 0.00 | 0.40 | 0.40 | 100 | 1012.8 |
| 20260508143057 | 62 | 202 | 0.0 | 1.0 | 0.00 | 0.40 | 0.40 | 100 | 1012.6 |
| 20260508141555 | 61 | 202 | 0.0 | 0.0 | 0.00 | 0.40 | 0.40 | 100 | 1012.6 |
| 20260508140053 | 61 | 202 | 0.0 | 0.0 | 0.00 | 0.40 | 0.40 | 100 | 1013.0 |
| 20260508134555 | 60 | 202 | 0.0 | 0.0 | 0.00 | 0.40 | 0.40 | 100 | 1012.6 |
| 20260508133053 | 60 | 202 | 0.0 | 0.0 | 0.00 | 0.40 | 0.40 | 100 | 1012.4 |
| 20260508131558 | 60 | 202 | 0.0 | 0.0 | 0.00 | 0.40 | 0.40 | 100 | 1012.3 |
| 20260508130108 | 60 | 202 | 0.0 | 0.0 | 0.00 | 0.40 | 0.40 | 100 | 1012.6 |
| 20260508124551 | 60 | 202 | 0.0 | 1.0 | 0.00 | 0.40 | 0.40 | 100 | 1012.7 |